Regional Weather Roundup
Issued by NWS Cleveland, OH

Home | Current Version | Previous Version | Text Only | Print | Product List | Glossary Off
Versions: 1 2 3 4 5 6 7 8 9 10 11 12 13 14 15 16 17 18 19 20 21 22 23 24 25 26 27 28 29 30 31 32 33 34 35 36 37 38 39 40 41 42 43 44 45 46 47 48 49 50

000
ASUS41 KCLE 060410
RWRCLE
OHIO REGIONAL WEATHER ROUNDUP
NATIONAL WEATHER SERVICE WILMINGTON, OH
1200 AM EDT FRI MAY 06 2016

NOTE: "FAIR" INDICATES FEW OR NO CLOUDS BELOW 12,000 FEET WITH NO
SIGNIFICANT WEATHER AND/OR OBSTRUCTIONS TO VISIBILITY.

OHZ001>008-015>018-024>027-034-035-043-044-060500-
   NORTHWEST OHIO

CITY           SKY/WX    TMP DP  RH WIND       PRES   REMARKS
DEFIANCE       MOCLDY    56  41  57 NW9       29.92R
FINDLAY        FAIR      54  36  50 N5        29.89S
TOLEDO EXPRESS FAIR      52  39  61 NW5       29.90S
TOLEDO EXEC    FAIR      52  38  58 CALM      29.90S
LIMA           FAIR      51  42  71 NW3       29.90S
$$

OHZ009>014-019>023-028>033-038-089-060500-
   NORTHEAST OHIO

CITY           SKY/WX    TMP DP  RH WIND       PRES   REMARKS
CLE-HOPKINS    FAIR      49  44  83 W3        29.88S
CLE-LAKEFRONT  FAIR      50  46  86 CALM      29.85S
CUY CO. ARPT   NOT AVBL
LORAIN-ELYRIA  MOCLDY    50  41  71 N7        29.87S
ASHTABULA      FAIR      46  43  89 NW3       29.85R
AKRON-CANTON   FAIR      49  42  77 N10       29.83R
WOOSTER        FAIR      47  44  90 N9        29.85S
MANSFIELD      MOCLDY    46  42  86 NW8       29.87R
YOUNGSTOWN     FAIR      48  42  80 N9        29.82R
$$

OHZ042-051>053-060>062-070>072-077>081-060500-
  SOUTHWEST OHIO

CITY           SKY/WX    TMP DP  RH WIND       PRES   REMARKS
CINC-COVINGTON FAIR      52  45  77 NW7       29.90R
CINC-LUNKEN    CLOUDY    51  49  92 CALM      29.90S
HAMILTON       FAIR      49  46  90 CALM      29.91R
DAYTON         FAIR      49  42  77 NW8       29.91R
WRIGHT-PAT AFB FAIR      48  44  87 CALM      29.89S
DAYTON GENERAL FAIR      53  41  63 NW5       29.89R
WILMINGTON     FAIR      49  39  68 NW6       29.88S
$$

OHZ036-037-039>041-045>050-054>059-063>069-073>076-082>088-060500-
  CENTRAL AND SOUTHEAST OHIO

CITY           SKY/WX    TMP DP  RH WIND       PRES   REMARKS
COLUMBUS       MOCLDY    53  42  66 N8        29.85S
OSU AIRPORT    FAIR      50  40  68 NW8       29.86S
BOLTON FIELD   FAIR      49  41  73 NW7       29.87S
RICKENBACK AFB CLOUDY    52  43  70 NW6       29.85S
NEWARK         FAIR      54  42  64 N8        29.84R
MARION         FAIR      48  41  76 N9        29.88S
LANCASTER      FAIR      49  42  77 NW5       29.85S
ZANESVILLE     MOCLDY    54  42  64 N8        29.81S
NEW PHILLY     FAIR      51  42  71 NW7       29.82R
$$




USA.gov is the U.S. government's official web portal to all federal, state and local government web resources and services.